Hourly Weather Barretos

Today, 18 April, Sunday

Time Temperature Precipitation Wind Pressure Humidity
00:00 +21°C° 0.4 mm 1 mps 712 mmHg 90%
01:00 +21°C° 0.2 mm 1 mps 712 mmHg 91%
02:00 +21°C° 0.2 mm 1 mps 712 mmHg 92%
03:00 +21°C° 0 mm 1 mps 712 mmHg 92%
04:00 +21°C° 0 mm 1 mps 712 mmHg 92%
05:00 +21°C° 0 mm 1 mps 712 mmHg 91%
06:00 +21°C° 0 mm 1 mps 712 mmHg 91%
07:00 +22°C° 0 mm 1 mps 712 mmHg 84%
08:00 +23°C° 0 mm 1 mps 713 mmHg 77%
09:00 +24°C° 0 mm 2 mps 714 mmHg 70%
10:00 +26°C° 0 mm 2 mps 713 mmHg 62%
11:00 +28°C° 0 mm 2 mps 713 mmHg 55%
12:00 +30°C° 0 mm 3 mps 713 mmHg 47%
13:00 +30°C° 0 mm 3 mps 712 mmHg 45%
14:00 +32°C° 0 mm 4 mps 712 mmHg 43%
15:00 +32°C° 0 mm 4 mps 711 mmHg 41%
16:00 +30°C° 0 mm 4 mps 711 mmHg 46%
17:00 +28°C° 0 mm 3 mps 711 mmHg 52%
18:00 +26°C° 0 mm 2 mps 711 mmHg 58%
19:00 +25°C° 0 mm 2 mps 711 mmHg 63%
20:00 +24°C° 0 mm 2 mps 712 mmHg 68%
21:00 +22°C° 0 mm 3 mps 712 mmHg 73%
22:00 +21°C° 0 mm 3 mps 712 mmHg 76%
23:00 +21°C° 0 mm 3 mps 712 mmHg 80%

Tomorrow, 19 April, Monday

Time Temperature Precipitation Wind Pressure Humidity
00:00 +20°C° 0 mm 3 mps 712 mmHg 84%
01:00 +19°C° 0 mm 3 mps 712 mmHg 86%
02:00 +19°C° 0 mm 3 mps 712 mmHg 89%
03:00 +18°C° 0 mm 2 mps 712 mmHg 92%
04:00 +18°C° 0 mm 2 mps 712 mmHg 93%
05:00 +18°C° 0 mm 2 mps 712 mmHg 94%
06:00 +17°C° 0 mm 2 mps 712 mmHg 95%
07:00 +19°C° 0 mm 3 mps 713 mmHg 84%
08:00 +21°C° 0 mm 3 mps 713 mmHg 74%
09:00 +24°C° 0 mm 3 mps 714 mmHg 64%
10:00 +26°C° 0 mm 3 mps 714 mmHg 56%
11:00 +28°C° 0 mm 3 mps 714 mmHg 49%
12:00 +30°C° 0 mm 2 mps 713 mmHg 41%
13:00 +31°C° 0 mm 3 mps 713 mmHg 38%
14:00 +31°C° 0 mm 3 mps 712 mmHg 35%
15:00 +33°C° 0 mm 4 mps 712 mmHg 32%
16:00 +30°C° 0 mm 4 mps 712 mmHg 36%
17:00 +28°C° 0 mm 3 mps 712 mmHg 40%
18:00 +27°C° 0 mm 3 mps 712 mmHg 44%
19:00 +25°C° 0 mm 4 mps 712 mmHg 50%
20:00 +23°C° 0 mm 4 mps 713 mmHg 56%
21:00 +22°C° 0 mm 5 mps 713 mmHg 63%
22:00 +21°C° 0 mm 4 mps 713 mmHg 66%
23:00 +20°C° 0 mm 4 mps 713 mmHg 70%

Day after tomorrow, 20 April, Tuesday

Time Temperature Precipitation Wind Pressure Humidity
00:00 +20°C° 0 mm 4 mps 713 mmHg 73%
01:00 +19°C° 0 mm 4 mps 713 mmHg 77%
02:00 +18°C° 0 mm 3 mps 712 mmHg 81%
03:00 +17°C° 0 mm 3 mps 712 mmHg 85%
04:00 +17°C° 0 mm 3 mps 712 mmHg 88%
05:00 +16°C° 0 mm 3 mps 712 mmHg 90%
06:00 +16°C° 0 mm 3 mps 712 mmHg 93%
07:00 +18°C° 0 mm 3 mps 713 mmHg 81%
08:00 +20°C° 0 mm 4 mps 714 mmHg 70%
09:00 +22°C° 0 mm 4 mps 714 mmHg 59%
10:00 +25°C° 0 mm 4 mps 714 mmHg 51%
11:00 +27°C° 0 mm 3 mps 714 mmHg 43%
12:00 +30°C° 0 mm 3 mps 714 mmHg 35%
13:00 +30°C° 0 mm 3 mps 713 mmHg 32%
14:00 +31°C° 0 mm 3 mps 713 mmHg 29%
15:00 +33°C° 0 mm 3 mps 712 mmHg 27%
16:00 +30°C° 0 mm 3 mps 712 mmHg 31%
17:00 +28°C° 0 mm 4 mps 712 mmHg 35%
18:00 +26°C° 0 mm 4 mps 712 mmHg 39%
19:00 +25°C° 0 mm 4 mps 712 mmHg 45%
20:00 +23°C° 0 mm 4 mps 713 mmHg 51%
21:00 +22°C° 0 mm 4 mps 713 mmHg 56%
22:00 +21°C° 0 mm 4 mps 713 mmHg 62%
23:00 +20°C° 0 mm 4 mps 713 mmHg 67%

21 April, Wednesday

Time Temperature Precipitation Wind Pressure Humidity
00:00 +19°C° 0 mm 4 mps 713 mmHg 72%
01:00 +18°C° 0 mm 4 mps 713 mmHg 76%
02:00 +17°C° 0 mm 3 mps 713 mmHg 80%
03:00 +17°C° 0 mm 3 mps 713 mmHg 83%
04:00 +16°C° 0 mm 3 mps 713 mmHg 85%
05:00 +14°C° 0 mm 3 mps 713 mmHg 88%
06:00 +14°C° 0 mm 3 mps 713 mmHg 90%
07:00 +17°C° 0 mm 3 mps 713 mmHg 79%
08:00 +19°C° 0 mm 3 mps 714 mmHg 68%
09:00 +22°C° 0 mm 3 mps 714 mmHg 57%
10:00 +25°C° 0 mm 2 mps 714 mmHg 49%
11:00 +28°C° 0 mm 1 mps 714 mmHg 42%
12:00 +29°C° 0 mm 0 mps 714 mmHg 34%
13:00 +31°C° 0 mm 1 mps 713 mmHg 31%
14:00 +31°C° 0 mm 1 mps 713 mmHg 28%
15:00 +32°C° 0 mm 2 mps 712 mmHg 25%
16:00 +30°C° 0 mm 2 mps 712 mmHg 29%
17:00 +28°C° 0 mm 2 mps 712 mmHg 32%
18:00 +25°C° 0 mm 2 mps 712 mmHg 36%
19:00 +24°C° 0 mm 2 mps 712 mmHg 43%
20:00 +22°C° 0 mm 3 mps 713 mmHg 50%
21:00 +21°C° 0 mm 3 mps 713 mmHg 56%
22:00 +20°C° 0 mm 3 mps 713 mmHg 61%
23:00 +19°C° 0 mm 3 mps 713 mmHg 65%

22 April, Thursday

Time Temperature Precipitation Wind Pressure Humidity
00:00 +18°C° 0 mm 3 mps 713 mmHg 70%
01:00 +18°C° 0 mm 3 mps 713 mmHg 74%
02:00 +17°C° 0 mm 3 mps 713 mmHg 78%
03:00 +16°C° 0 mm 3 mps 713 mmHg 82%
04:00 +16°C° 0 mm 2 mps 713 mmHg 83%
05:00 +15°C° 0 mm 2 mps 713 mmHg 85%
06:00 +15°C° 0 mm 2 mps 713 mmHg 87%
07:00 +18°C° 0 mm 2 mps 713 mmHg 75%
08:00 +20°C° 0 mm 2 mps 714 mmHg 64%
09:00 +24°C° 0 mm 2 mps 715 mmHg 52%
10:00 +26°C° 0 mm 2 mps 714 mmHg 44%
11:00 +29°C° 0 mm 1 mps 714 mmHg 36%
12:00 +31°C° 0 mm 1 mps 714 mmHg 28%
13:00 +32°C° 0 mm 2 mps 714 mmHg 25%
14:00 +32°C° 0 mm 2 mps 713 mmHg 23%
15:00 +33°C° 0 mm 3 mps 712 mmHg 20%
16:00 +30°C° 0 mm 3 mps 712 mmHg 23%
17:00 +28°C° 0 mm 3 mps 712 mmHg 26%
18:00 +25°C° 0 mm 2 mps 712 mmHg 30%
19:00 +24°C° 0 mm 2 mps 712 mmHg 33%
20:00 +22°C° 0 mm 3 mps 713 mmHg 36%
21:00 +20°C° 0 mm 3 mps 713 mmHg 38%
22:00 +19°C° 0 mm 3 mps 713 mmHg 46%
23:00 +18°C° 0 mm 3 mps 713 mmHg 54%

23 April, Friday

Time Temperature Precipitation Wind Pressure Humidity
00:00 +17°C° 0 mm 3 mps 713 mmHg 61%
01:00 +17°C° 0 mm 3 mps 713 mmHg 65%
02:00 +16°C° 0 mm 2 mps 713 mmHg 69%
03:00 +16°C° 0 mm 2 mps 713 mmHg 73%
04:00 +16°C° 0 mm 2 mps 713 mmHg 77%
05:00 +15°C° 0 mm 2 mps 713 mmHg 80%
06:00 +15°C° 0 mm 2 mps 713 mmHg 83%
07:00 +18°C° 0 mm 2 mps 714 mmHg 71%
08:00 +21°C° 0 mm 2 mps 715 mmHg 59%
09:00 +25°C° 0 mm 2 mps 715 mmHg 47%
10:00 +27°C° 0 mm 2 mps 715 mmHg 39%
11:00 +30°C° 0 mm 1 mps 715 mmHg 31%
12:00 +33°C° 0 mm 1 mps 715 mmHg 22%
13:00 +33°C° 0 mm 1 mps 714 mmHg 21%
14:00 +34°C° 0 mm 2 mps 713 mmHg 20%
15:00 +35°C° 0 mm 3 mps 712 mmHg 19%
16:00 +31°C° 0 mm 3 mps 712 mmHg 24%
17:00 +29°C° 0 mm 2 mps 712 mmHg 28%
18:00 +27°C° 0 mm 2 mps 712 mmHg 32%
19:00 +25°C° 0 mm 2 mps 712 mmHg 34%
20:00 +24°C° 0 mm 3 mps 712 mmHg 37%
21:00 +22°C° 0 mm 3 mps 713 mmHg 39%
22:00 +21°C° 0 mm 3 mps 713 mmHg 44%
23:00 +20°C° 0 mm 3 mps 713 mmHg 49%
Show more